Вернуться в каталог

COSMOS 1560

АктивенВоенныеLEO
NORAD 14999·PAYLOAD·🇷🇺 Russia

Запущен May 28, 1984 с Plesetsk Cosmodrome

Loading…

Ближайшие Пролёты (ближайшие 24 часа)

TLE

СвежийSource: Space-Track

Эпоха: Sep 14, 2026, 04:30 UTC

1 14999U 84052B   26257.18805714  .00000004  00000-0  14004-3 0  9993
2 14999  74.0162 344.4865 0014192 248.8027 133.8931 12.46119033923929

Отслеживайте COSMOS 1560 в реальном времени с AllMySat

Download on the App Store